Regional Weather Roundup
Issued by NWS

Home | Current Version | Previous Version | Text Only | Print | Product List | Glossary Off
Versions: 1 2 3 4 5 6 7 8 9 10 11 12 13 14 15 16 17 18 19 20 21 22 23 24 25 26 27 28 29 30 31 32 33 34 35 36 37 38 39 40 41 42 43 44 45 46 47 48 49 50

000
ASUS43 KMKX 230821
RWRWI

WISCONSIN REGIONAL WEATHER ROUNDUP
NATIONAL WEATHER SERVICE MILWAUKEE/SULLIVAN WI
300 AM CDT WED AUG 23 2017

NOTE: "FAIR" INDICATES FEW OR NO CLOUDS BELOW 12,000 FEET WITH NO
SIGNIFICANT WEATHER AND/OR OBSTRUCTIONS TO VISIBILITY.

WIZ001-002-006>008-014>016-023>028-230900-
NORTHWEST WISCONSIN

CITY           SKY/WX    TMP DP  RH WIND       PRES   REMARKS
SUPERIOR ARPT    N/A     53  51  92 NW7       30.02R
ASHLAND        MOCLDY    53  52  96 SW6       30.00R
HAYWARD        PTCLDY    48  46  93 CALM      30.02R
SIREN          CLEAR     52  49  89 NW3       30.05R
CUMBERLAND     CLEAR     52  48  87 NW6       30.05R
RICE LAKE      CLEAR     53  49  86 W3        30.05R
CHETEK         CLEAR     54  50  87 NW5       30.04R
LADYSMITH      CLEAR     55  51  86 W5        30.03S
EAU CLAIRE     CLEAR     54  49  83 CALM      30.03R
MENOMONIE      CLEAR     56  50  81 W5        30.05R
NEW RICHMOND   CLEAR     51  46  83 W3        30.06R
OSCEOLA        CLEAR     52  52 100 CALM      30.09R
$$

WIZ003>005-009-010-017-018-230900-
NORTH CENTRAL WISCONSIN

CITY           SKY/WX    TMP DP  RH WIND       PRES   REMARKS
MANITOWISH WTR CLOUDY    53  53 100 W6        29.98R
ARBOR VITAE    MOCLDY    57  55  93 NW6       29.98R
WOODRUFF       MOCLDY    57  55  93 NW6       29.98R
RHINELANDER    PTCLDY    52  51  97 W6        29.99R
EAGLE RIVER    PTCLDY    53  52  97 NW5       29.96R
LAND O LAKES   MOCLDY    55  52  92 NW5       29.98R
PHILLIPS       PTCLDY    52  52 100 CALM      30.00R
TOMAHAWK         N/A     49  48  95 W3        30.00R
MEDFORD        CLEAR     51  48  90 W5        30.01R
MERRILL        CLEAR     52  52 100 W6        30.00R
$$

WIZ029-030-035-036-043>047-230900-
CENTRAL WISCONSIN

CITY           SKY/WX    TMP DP  RH WIND       PRES   REMARKS
WAUSAU         CLEAR     54  50  86 NW7       29.98R
MOSINEE        CLEAR     52  50  93 W7        30.01R
MARSHFIELD     CLEAR     53  47  79 W6        30.01R
STEVENS POINT  CLEAR     54  49  85 W5        30.01R
WAUPACA        CLEAR     58  50  74 W6        29.99R
WAUTOMA        CLEAR     53  49  86 W6        30.01R
WISC RAPIDS    CLEAR     54  49  83 NW8       30.02R
CAMP DOUGLAS   CLEAR     50  47  89 W7        30.02R
$$

WIZ011>013-019>022-031-037>040-048>050-230900-
NORTHEAST WISCONSIN

CITY           SKY/WX    TMP DP  RH WIND       PRES   REMARKS
ANTIGO         CLEAR     51  50  97 W7        29.98R
SHAWANO        CLEAR     58  51  78 W5        29.96R
OCONTO         CLEAR     55  51  86 W7        29.94R
STURGEON BAY   CLEAR     60  54  80 W9        29.94R
GREEN BAY      CLEAR     55  53  93 W7        29.96R
MANITOWOC      CLEAR     60  50  69 W10       29.95S
APPLETON       CLEAR     54  45  71 W8        29.97R
CLINTONVILLE   CLEAR     55  48  76 NW7       29.97R
OSHKOSH        CLEAR     58  49  72 W7        29.97R
$$

WIZ032>034-041-042-053>061-230900-
SOUTHWEST WISCONSIN

CITY           SKY/WX    TMP DP  RH WIND       PRES   REMARKS
LA CROSSE      CLEAR     62  51  67 NW8       30.04R
SPARTA         CLEAR     46  46  97 CALM      30.05R
VIROQUA        CLEAR     54  51  90 W7        30.06R
BOSCOBEL       CLEAR     54  50  86 SW6       30.06R
PRAIRIE DU CHI CLEAR     54  49  81 CALM      30.06S
PLATTEVILLE    CLEAR     53  53  99 W5        30.07S
$$

WIZ056-057-062-063-064-067-068-230900-
SOUTH CENTRAL WISCONSIN

CITY           SKY/WX    TMP DP  RH WIND       PRES   REMARKS
REEDSBURG      CLEAR     52  52 100 CALM      30.03R
BARABOO/DELLS  CLEAR     56  48  75 W3        30.03R
LONE ROCK      CLEAR     55  53  93 W5        30.04S
MINERAL POINT  CLEAR     55  52  88 W5        30.06S
MADISON        CLEAR     58  51  78 VRB3      30.02R
MIDDLETON      CLEAR     56  52  85 W8        30.04R
WATERTOWN      CLEAR     55  53  93 W3        30.01S
MONROE         CLEAR     55  50  82 W10       30.05S
JANESVILLE     CLEAR     55  52  88 W3        30.03R
$$

WIZ051-052-058>065-066-070>072-230900-
SOUTHEAST WISCONSIN

CITY           SKY/WX    TMP DP  RH WIND       PRES   REMARKS
MILWAUKEE      CLEAR     62  51  67 W6        29.99S
WAUKESHA       CLEAR     55  48  76 W8        30.01S
MILWAUKEE/TIMM CLEAR     57  46  67 W7        30.00S
RACINE         CLEAR     59  52  77 W7        30.01S
KENOSHA        CLEAR     55  51  86 W6        30.01R
FOND DU LAC    CLEAR     58  49  72 W6        29.99R
SHEBOYGAN      CLEAR     57  52  83 W6        29.96S
WEST BEND      CLEAR     57  50  77 W7        29.99R
JUNEAU         CLEAR     56  50  79 W5        30.01S
$$

LSZ147-162-230900-
LAKE SUPERIOR

STATION/POSITION TIME  TEMP    WIND        PRES    WAVE
                       AIR SEA DIR/SP/G            HT/PER
                 (UTC) (F)     (DEG/KT/KT) (MB)    (FT/S)
W MID LAKE BUOY  0750   60 60  330/ 16/ 17 1013.7R   2/ 4
DEVILS ISLAND    0800   60     330/ 13/ 14 1015.0R
SAXON HARBOR     0740   63     310/ 12/ 16 1014.6R
$$

LMZ867-665-643>646-230900-
LAKE MICHIGAN

STATION/POSITION TIME  TEMP    WIND        PRES    WAVE
                       AIR SEA DIR/SP/G            HT/PER
                 (UTC) (F)     (DEG/KT/KT) (MB)    (FT/S)
S GREEN BAY BUOY 0800   63 70  280/ 16/ 19 1013.6
N MID LAKE BUOY  0750   62 67  310/ 19/ 23 1011.7R   3/ 4
NORTHPORT PIER   0740   62     310/ 16/ 20 1012.2R
KEWAUNEE LAKESHO 0754   58     300/  2/  4 1012.9R
SHEBOYGAN LAKESH 0800   61     260/ 12/ 14 1014.1R
PORT WASHINGTON  0740   61     280/  6/  9 1015.6S
ATWATER BUOY     0709   64 67  240/ 12/ 16 1015.1F
MILWAUKEE LAKESH 0800   63     280/  7/  8   N/A
S MID LAKE BUOY  0750   68 71  320/ 16/ 17 1014.7R   4/ 5
KENOSHA   LAKESH 0800   61     280/  9/ 12 1015.9
$$

TC  - TEMPERATURE IN CELSIUS
VSB - VISIBILITY IN STATUTE MILES
WCI - WIND CHILL INDEX
HX  - HEAT INDEX





USA.gov is the U.S. government's official web portal to all federal, state and local government web resources and services.